WRANGELL, AK current weather conditions

sailwx.info

Wind from 110 at 5 knots

Air temperature 6.0° C
Visibility: greater than 8.7 NM
Dewpoint 3.0° C

Last reported at 2019-Nov-12 05:05 UTC.
Time now 2019-Nov-12 05:54 UTC

Location: N 56°29' W 132°22'.
View on Google Maps.

See reports from other nearby stations

  
Tides and Currents Weather Stations Pressure Air Temp Water Temp Dewpoint Dewpoint Depression Visibility Wind Speed Wind Dir Waves Ship Positions
date/time (UTC)wind fromknots sea level pressurealtimeterstation pressurevisibilityair tempwater tempwave heightnotes
2019-Nov-12 05:05 110 5 8.7 6.0
2019-Nov-12 05:00 090 4 8.7 6.0
2019-Nov-12 04:56 070 6 8.7 5.6
2019-Nov-12 04:55 080 5 8.7 6.0
2019-Nov-12 04:50 070 7 8.7 6.0
2019-Nov-12 04:45 080 10 8.7 6.0
2019-Nov-12 04:30 080 7 8.7 6.0
2019-Nov-12 04:25 080 7 8.7 6.0
2019-Nov-12 04:10 080 9 8.7 5.0
2019-Nov-12 04:05 080 8 8.7 5.0
2019-Nov-12 04:00 080 8 8.7 6.0
2019-Nov-12 03:56 080 7 8.7 5.6
2019-Nov-12 03:55 080 7 8.7 6.0
2019-Nov-12 03:50 090 7 8.7 6.0
2019-Nov-12 03:45 080 6 8.7 5.0
2019-Nov-12 03:40 080 4 8.7 5.0
2019-Nov-12 03:35 080 6 8.7 5.0
2019-Nov-12 03:20 050 4 8.7 6.0
2019-Nov-12 03:15 050 6 8.7 6.0
2019-Nov-12 03:10 070 8 8.7 6.0
2019-Nov-12 03:05 080 6 8.7 6.0
2019-Nov-12 02:56 8.7 5.6
2019-Nov-12 02:55 100 5 8.7 6.0
2019-Nov-12 02:50 090 6 8.7 6.0
2019-Nov-12 02:45 080 8 8.7 6.0
2019-Nov-12 02:40 080 9 8.7 6.0
2019-Nov-12 02:35 080 9 8.7 6.0
2019-Nov-12 02:30 090 8 8.7 5.0
2019-Nov-12 02:25 080 8 8.7 5.0
2019-Nov-12 02:20 080 8 8.7 5.0
2019-Nov-12 02:10 080 7 8.7 5.0
2019-Nov-12 02:05 080 9 8.7 5.0
2019-Nov-12 01:55 080 6 8.7 6.0
2019-Nov-12 01:45 100 8 8.7 6.0
2019-Nov-12 01:35 090 6 8.7 6.0
2019-Nov-12 01:30 150 5 8.7 6.0
2019-Nov-12 01:25 080 6 8.7 6.0
2019-Nov-12 01:20 100 5 8.7 6.0
2019-Nov-12 01:00 040 5 8.7 5.0
2019-Nov-12 00:56 8.7 5.6
2019-Nov-12 00:55 060 5 8.7 6.0
2019-Nov-12 00:50 8.7 6.0
2019-Nov-12 00:45 080 4 8.7 5.0
2019-Nov-12 00:40 090 7 8.7 6.0
2019-Nov-12 00:35 090 8 8.7 6.0
2019-Nov-12 00:30 080 7 8.7 5.0
2019-Nov-12 00:25 070 8 8.7 5.0
2019-Nov-12 00:20 080 9 8.7 6.0
2019-Nov-12 00:15 080 10 8.7 5.0
2019-Nov-12 00:10 080 9 8.7 5.0
2019-Nov-12 00:05 070 11 8.7 6.0
2019-Nov-12 00:00 070 8 8.7 5.0
2019-Nov-11 23:56 070 6 8.7 5.0
2019-Nov-11 23:55 070 6 8.7 5.0
2019-Nov-11 23:50 060 7 8.7 5.0
2019-Nov-11 23:40 060 8 8.7 6.0
2019-Nov-11 23:35 080 8 8.7 6.0
2019-Nov-11 23:30 090 9 8.7 6.0
2019-Nov-11 23:25 090 8 8.7 6.0
2019-Nov-11 23:20 070 8 8.7 6.0
2019-Nov-11 23:15 070 10 8.7 6.0
2019-Nov-11 23:05 070 10 8.7 5.0
2019-Nov-11 23:00 060 8 8.7 5.0
2019-Nov-11 22:56 060 7 gusting 13 8.7 5.0
2019-Nov-11 22:55 060 9 8.7 5.0
2019-Nov-11 22:50 070 8 8.7 5.0
2019-Nov-11 22:45 060 7 8.7 5.0
2019-Nov-11 22:40 060 9 gusting 14 8.7 5.0
2019-Nov-11 22:35 060 8 8.7 5.0 Light rain.
2019-Nov-11 22:30 050 11 7.8 5.0 Light rain.
2019-Nov-11 22:25 060 9 gusting 14 6.1 5.0 Rain.
2019-Nov-11 22:20 060 10 6.1 5.0 Rain.
2019-Nov-11 22:15 060 10 8.7 5.0 Light rain.
2019-Nov-11 21:56 060 6 gusting 13 8.7 5.0
2019-Nov-11 21:55 060 8 8.7 5.0 Light rain.
2019-Nov-11 21:50 060 9 gusting 14 8.7 5.0 Light rain.
2019-Nov-11 21:40 060 9 8.7 5.0 Light rain.
2019-Nov-11 21:35 060 9 8.7 5.0 Light rain.
2019-Nov-11 21:30 060 7 8.7 5.0 Light rain.
2019-Nov-11 21:25 060 8 8.7 5.0 Light rain.
2019-Nov-11 21:20 060 8 8.7 5.0 Light rain.
2019-Nov-11 21:15 050 11 8.7 5.0 Light rain.
2019-Nov-11 21:10 050 11 gusting 17 8.7 5.0 Light rain.
2019-Nov-11 21:05 050 12 8.7 4.0 Light rain.
2019-Nov-11 21:00 060 10 gusting 16 8.7 5.0 Light rain.
2019-Nov-11 20:55 060 9 8.7 4.0 Light rain.
2019-Nov-11 20:45 060 8 8.7 4.0 Light rain.
2019-Nov-11 20:35 070 8 8.7 5.0 Light rain.
2019-Nov-11 20:30 070 8 7.8 5.0 Light rain.
2019-Nov-11 20:25 070 6 7.8 5.0 Rain.
2019-Nov-11 20:20 070 7 7.8 5.0 Rain.
2019-Nov-11 20:10 070 5 8.7 4.0 Light rain.
2019-Nov-11 20:05 8.7 4.0 Light rain.
2019-Nov-11 20:00 160 5 8.7 3.0 Light rain.
2019-Nov-11 19:55 240 4 7.8 4.0 Light rain.
2019-Nov-11 19:45 090 3 7.8 4.0 Rain.
2019-Nov-11 19:40 040 4 7.0 4.0 Rain.
2019-Nov-11 19:35 7.0 4.0 Rain.
2019-Nov-11 19:25 120 3 8.7 4.0 Light rain.
2019-Nov-11 19:20 010 4 8.7 4.0 Light rain.
2019-Nov-11 19:15 010 6 8.7 4.0 Light rain.
2019-Nov-11 19:10 8.7 3.0 Light rain.
2019-Nov-11 19:05 010 3 8.7 3.0 Light rain.
2019-Nov-11 19:00 350 5 8.7 4.0 Light rain.
2019-Nov-11 18:55 080 5 8.7 4.0 Light rain.
2019-Nov-11 18:45 070 7 8.7 4.0 Rain.
2019-Nov-11 18:40 360 5 8.7 3.0 Rain.
2019-Nov-11 18:30 300 8 8.7 3.0 Rain.
2019-Nov-11 18:25 230 3 8.7 3.0 Rain.
2019-Nov-11 18:15 310 6 8.7 3.0 Rain.
2019-Nov-11 18:10 210 4 8.7 3.0 Rain.
2019-Nov-11 18:05 280 6 8.7 3.0 Rain.
2019-Nov-11 18:00 230 3 7.8 3.0 Rain.
2019-Nov-11 17:56 250 4 7.8 2.2 Rain.
2019-Nov-11 17:55 250 5 7.8 2.0 Rain.
2019-Nov-11 17:50 8.7 2.0 Rain.
2019-Nov-11 17:40 150 3 8.7 3.0 Light rain.
2019-Nov-11 17:35 8.7 3.0 Light rain.
2019-Nov-11 17:30 120 5 8.7 4.0 Light rain.
2019-Nov-11 17:25 080 7 8.7 3.0 Light rain.
2019-Nov-11 17:15 070 6 8.7 3.0 Light rain.
2019-Nov-11 17:10 050 3 8.7 3.0 Light rain.
2019-Nov-11 17:05 340 4 8.7 3.0 Light rain.
2019-Nov-11 17:00 010 4 8.7 2.0 Light rain.
2019-Nov-11 16:56 8.7 2.2 Light rain.
2019-Nov-11 16:55 010 4 8.7 3.0 Light rain.
2019-Nov-11 16:45 050 6 6.1 3.0 Precipitation.
2019-Nov-11 16:40 010 7 5.2 2.0 Light snow. Mist.
2019-Nov-11 16:35 360 6 6.1 2.0 Light snow.
2019-Nov-11 16:30 360 7 6.1 2.0 Rain.
2019-Nov-11 16:20 320 3 8.7 2.0 Rain.
2019-Nov-11 16:15 320 3 8.7 2.0 Rain.
2019-Nov-11 16:10 8.7 2.0 Light rain.
2019-Nov-11 16:05 8.7 2.0 Light rain.
2019-Nov-11 16:00 320 3 8.7 2.0 Light rain.
2019-Nov-11 15:56 320 4 8.7 2.2 Light rain.
2019-Nov-11 15:55 320 4 8.7 2.0 Light rain.
2019-Nov-11 15:50 310 3 8.7 2.0 Light rain.
2019-Nov-11 15:45 300 3 8.7 2.0 Light rain.
2019-Nov-11 15:40 310 4 8.7 2.0 Light rain.
2019-Nov-11 15:35 330 3 8.7 2.0
2019-Nov-11 15:30 320 6 8.7 2.0
2019-Nov-11 15:25 320 4 8.7 2.0
2019-Nov-11 15:20 310 5 8.7 2.0
2019-Nov-11 15:15 290 7 8.7 2.0
2019-Nov-11 15:10 270 6 8.7 2.0 Light rain.
2019-Nov-11 15:00 280 3 8.7 2.0 Light rain.
2019-Nov-11 14:55 270 5 8.7 1.0 Light rain.
2019-Nov-11 14:50 250 4 8.7 1.0
2019-Nov-11 14:45 270 4 8.7 2.0
2019-Nov-11 14:40 250 4 8.7 2.0
2019-Nov-11 14:35 260 6 8.7 1.0
2019-Nov-11 14:25 270 6 8.7 2.0
2019-Nov-11 14:20 260 6 8.7 2.0 Precipitation.
2019-Nov-11 14:10 240 3 8.7 2.0 Light rain.
2019-Nov-11 14:05 8.7 3.0 Light rain.
2019-Nov-11 14:00 8.7 3.0 Light rain.
2019-Nov-11 13:56 080 4 8.7 3.3 Light rain.
2019-Nov-11 13:50 080 7 8.7 3.0 Light rain.
2019-Nov-11 13:45 070 4 8.7 3.0 Light rain.
2019-Nov-11 13:40 070 6 8.7 3.0 Light rain.
2019-Nov-11 13:35 080 6 8.7 3.0 Light rain.
2019-Nov-11 13:30 090 4 8.7 3.0 Light rain.
2019-Nov-11 13:25 060 6 8.7 3.0
2019-Nov-11 13:20 070 5 8.7 3.0
2019-Nov-11 13:15 060 6 8.7 3.0
2019-Nov-11 13:10 320 3 8.7 2.0
2019-Nov-11 13:05 8.7 3.0
2019-Nov-11 13:00 8.7 3.0
2019-Nov-11 12:55 060 5 8.7 3.0
2019-Nov-11 12:50 090 8 8.7 3.0
2019-Nov-11 12:45 070 8 8.7 3.0
2019-Nov-11 12:40 070 6 8.7 3.0
2019-Nov-11 12:35 050 5 8.7 3.0
2019-Nov-11 12:30 060 6 8.7 3.0
2019-Nov-11 12:25 060 5 8.7 3.0
2019-Nov-11 12:20 020 3 8.7 3.0
2019-Nov-11 12:15 020 4 8.7 3.0
2019-Nov-11 12:10 020 3 8.7 3.0
2019-Nov-11 12:05 050 6 8.7 3.0
2019-Nov-11 12:00 050 4 8.7 3.0
2019-Nov-11 11:56 8.7 2.8
2019-Nov-11 11:55 020 6 8.7 3.0
2019-Nov-11 11:50 070 7 8.7 3.0
2019-Nov-11 11:45 080 10 8.7 3.0
2019-Nov-11 11:30 080 7 8.7 3.0
2019-Nov-11 11:25 080 6 8.7 3.0
2019-Nov-11 11:20 020 5 8.7 3.0
2019-Nov-11 11:15 030 5 8.7 3.0
2019-Nov-11 11:10 080 7 8.7 3.0
2019-Nov-11 11:05 080 8 8.7 3.0
2019-Nov-11 11:00 070 6 8.7 2.0
2019-Nov-11 10:56 070 6 8.7 2.2
2019-Nov-11 10:55 070 7 8.7 2.0
2019-Nov-11 10:45 060 7 8.7 2.0
2019-Nov-11 10:40 300 3 8.7 3.0
2019-Nov-11 10:35 8.7 3.0
2019-Nov-11 10:30 090 4 8.7 2.0
2019-Nov-11 10:25 090 4 8.7 2.0
2019-Nov-11 10:10 050 5 8.7 2.0
2019-Nov-11 10:05 050 5 8.7 3.0
2019-Nov-11 10:00 060 6 8.7 3.0
2019-Nov-11 09:55 030 5 8.7 3.0
2019-Nov-11 09:50 8.7 2.0
2019-Nov-11 09:45 080 4 8.7 2.0
2019-Nov-11 09:40 080 4 8.7 2.0
2019-Nov-11 09:35 070 4 8.7 2.0
2019-Nov-11 09:30 8.7 1.0
2019-Nov-11 09:25 8.7 1.0
2019-Nov-11 09:20 140 4 8.7 1.0
2019-Nov-11 09:05 070 7 8.7 2.0
2019-Nov-11 09:00 070 5 8.7 2.0
2019-Nov-11 08:56 8.7 2.2
2019-Nov-11 08:55 020 3 8.7 2.0
2019-Nov-11 08:50 8.7 2.0
2019-Nov-11 08:45 090 5 8.7 2.0
2019-Nov-11 08:40 090 6 8.7 2.0
2019-Nov-11 08:35 090 7 8.7 2.0
2019-Nov-11 08:30 080 5 8.7 2.0
2019-Nov-11 08:25 070 7 8.7 2.0
2019-Nov-11 08:15 080 6 8.7 2.0
2019-Nov-11 08:10 070 7 8.7 2.0
2019-Nov-11 08:05 070 7 8.7 2.0
2019-Nov-11 08:00 080 4 8.7 1.0
2019-Nov-11 07:56 8.7 1.7
2019-Nov-11 07:55 8.7 2.0
2019-Nov-11 07:50 8.7 1.0
2019-Nov-11 07:45 320 4 8.7 1.0
2019-Nov-11 07:40 300 4 8.7 1.0
2019-Nov-11 07:35 310 5 8.7 1.0
2019-Nov-11 07:25 340 3 8.7 1.0
2019-Nov-11 07:10 8.7 1.0
2019-Nov-11 07:05 8.7 1.0
2019-Nov-11 07:00 8.7 1.0
2019-Nov-11 06:56 230 2 8.7 1.1
2019-Nov-11 06:55 220 3 8.7 1.0
2019-Nov-11 06:50 8.7 2.0
2019-Nov-11 06:45 090 4 8.7 2.0
2019-Nov-11 06:40 070 6 8.7 2.0
2019-Nov-11 06:35 080 6 8.7 2.0
2019-Nov-11 06:30 070 4 8.7 2.0
2019-Nov-11 06:20 8.7 2.0
2019-Nov-11 06:15 8.7 2.0
2019-Nov-11 06:10 310 5 8.7 2.0
2019-Nov-11 06:05 030 6 8.7 2.0
2019-Nov-11 06:00 040 5 8.7 2.0
2019-Nov-11 05:56 8.7 2.2
2019-Nov-11 05:50 080 7 8.7 2.0
2019-Nov-11 05:45 070 6 8.7 2.0
2019-Nov-11 05:40 8.7 1.0
2019-Nov-11 05:30 8.7 2.0
2019-Nov-11 05:25 8.7 2.0
2019-Nov-11 05:15 360 3 8.7 1.0
2019-Nov-11 05:10 350 4 8.7 1.0
2019-Nov-11 05:05 360 4 8.7 1.0
2019-Nov-11 05:00 320 4 8.7 1.0
2019-Nov-11 04:56 8.7 1.1
2019-Nov-11 04:55 8.7 1.0
2019-Nov-11 04:50 330 3 8.7 1.0
2019-Nov-11 04:45 280 5 8.7 2.0
2019-Nov-11 04:35 010 3 8.7 2.0
2019-Nov-11 04:30 040 4 8.7 3.0
2019-Nov-11 04:25 070 6 8.7 3.0
2019-Nov-11 04:20 060 7 8.7 2.0
2019-Nov-11 04:15 050 6 8.7 2.0
2019-Nov-11 04:10 070 6 8.7 2.0
2019-Nov-11 04:05 060 6 8.7 3.0
2019-Nov-11 04:00 070 8 8.7 3.0
2019-Nov-11 03:56 070 6 8.7 2.8
2019-Nov-11 03:55 070 6 8.7 3.0
2019-Nov-11 03:50 080 9 8.7 2.0
2019-Nov-11 03:45 070 8 8.7 2.0
2019-Nov-11 03:40 070 7 8.7 2.0
2019-Nov-11 03:35 8.7 2.0
2019-Nov-11 03:30 8.7 2.0
2019-Nov-11 03:20 300 5 8.7 2.0
2019-Nov-11 03:15 320 4 8.7 2.0
2019-Nov-11 03:10 320 4 8.7 2.0
2019-Nov-11 03:05 320 3 8.7 2.0
2019-Nov-11 02:55 300 3 8.7 1.0
2019-Nov-11 02:50 290 3 8.7 2.0
2019-Nov-11 02:35 310 3 8.7 2.0
2019-Nov-11 02:25 240 4 8.7 2.0
2019-Nov-11 02:20 8.7 2.0
2019-Nov-11 02:15 340 3 8.7 2.0
2019-Nov-11 02:10 8.7 3.0
2019-Nov-11 02:05 080 5 8.7 3.0
2019-Nov-11 01:56 070 4 8.7 3.0
2019-Nov-11 01:55 070 4 8.7 3.0
2019-Nov-11 01:50 060 4 8.7 3.0
2019-Nov-11 01:45 8.7 3.0
2019-Nov-11 01:35 030 5 8.7 3.0
2019-Nov-11 01:30 070 6 8.7 3.0
2019-Nov-11 01:25 070 5 8.7 3.0
2019-Nov-11 01:15 8.7 2.0
2019-Nov-11 01:10 8.7 2.0
2019-Nov-11 01:05 8.7 2.0
2019-Nov-11 01:00 8.7 3.0
2019-Nov-11 00:56 8.7 2.8
2019-Nov-11 00:55 020 3 8.7 3.0
2019-Nov-11 00:50 350 4 8.7 3.0
2019-Nov-11 00:45 040 4 8.7 3.0
2019-Nov-11 00:35 070 5 8.7 3.0
2019-Nov-11 00:30 080 4 8.7 3.0
2019-Nov-11 00:25 060 3 8.7 3.0
2019-Nov-11 00:20 030 4 8.7 3.0
2019-Nov-11 00:15 010 4 8.7 3.0
2019-Nov-11 00:10 030 4 8.7 3.0
2019-Nov-11 00:05 050 6 8.7 3.0
2019-Nov-11 00:00 040 4 8.7 3.0
2019-Nov-10 23:56 8.7 3.3
2019-Nov-10 23:55 020 3 8.7 3.0
2019-Nov-10 23:50 030 5 8.7 3.0
2019-Nov-10 23:45 020 7 8.7 3.0
2019-Nov-10 23:40 050 6 8.7 3.0
2019-Nov-10 23:30 050 4 8.7 3.0
2019-Nov-10 23:25 080 7 8.7 3.0
2019-Nov-10 23:20 070 6 8.7 3.0
2019-Nov-10 23:15 060 5 8.7 3.0
2019-Nov-10 23:10 060 6 8.7 3.0
2019-Nov-10 23:05 060 5 8.7 3.0
2019-Nov-10 23:00 060 7 8.7 3.0
2019-Nov-10 22:56 070 7 8.7 3.3
2019-Nov-10 22:55 070 8 8.7 3.0
2019-Nov-10 22:50 060 6 8.7 3.0
2019-Nov-10 22:40 020 6 8.7 3.0
2019-Nov-10 22:35 050 4 8.7 3.0
2019-Nov-10 22:30 350 4 8.7 4.0
2019-Nov-10 22:25 030 3 8.7 4.0
2019-Nov-10 22:20 060 3 8.7 4.0
2019-Nov-10 22:15 8.7 3.0
2019-Nov-10 22:05 040 6 8.7 4.0
2019-Nov-10 22:00 050 6 8.7 4.0
2019-Nov-10 21:56 040 9 8.7 4.0
2019-Nov-10 21:55 040 6 8.7 4.0
2019-Nov-10 21:45 060 5 8.7 3.0
2019-Nov-10 21:40 040 6 8.7 3.0
2019-Nov-10 21:35 050 7 8.7 3.0
2019-Nov-10 21:30 070 7 8.7 3.0
2019-Nov-10 21:25 070 7 8.7 3.0
2019-Nov-10 21:20 050 6 8.7 3.0
2019-Nov-10 21:15 360 4 8.7 3.0
2019-Nov-10 21:10 360 5 8.7 3.0
2019-Nov-10 21:05 360 7 8.7 3.0
2019-Nov-10 21:00 010 8 8.7 3.0
2019-Nov-10 20:56 050 8 8.7 3.3
2019-Nov-10 20:55 060 8 8.7 3.0
2019-Nov-10 20:50 080 11 8.7 3.0
2019-Nov-10 20:45 060 7 8.7 3.0
2019-Nov-10 20:40 070 8 8.7 3.0
2019-Nov-10 20:30 090 13 8.7 3.0
2019-Nov-10 20:25 080 14 8.7 3.0
2019-Nov-10 20:20 070 11 8.7 3.0
2019-Nov-10 20:00 030 6 8.7 3.0
2019-Nov-10 19:56 040 9 8.7 3.0
2019-Nov-10 19:50 070 7 8.7 3.0
2019-Nov-10 19:45 060 8 8.7 3.0
2019-Nov-10 19:40 070 9 8.7 3.0
2019-Nov-10 19:35 080 11 8.7 3.0
2019-Nov-10 19:30 070 11 8.7 3.0
2019-Nov-10 19:25 070 9 gusting 14 8.7 3.0
2019-Nov-10 19:20 080 10 8.7 3.0
2019-Nov-10 18:56 8.7 3.3
2019-Nov-10 18:45 060 5 8.7 3.0
2019-Nov-10 18:40 050 6 8.7 3.0
2019-Nov-10 18:35 080 10 8.7 3.0
2019-Nov-10 18:30 080 9 8.7 3.0
2019-Nov-10 18:25 080 10 8.7 3.0
2019-Nov-10 18:20 090 10 8.7 3.0
2019-Nov-10 18:15 080 9 8.7 3.0
2019-Nov-10 18:10 080 11 8.7 3.0
2019-Nov-10 18:05 080 12 8.7 3.0
2019-Nov-10 18:00 080 11 8.7 3.0
2019-Nov-10 17:56 080 9 8.7 3.0
2019-Nov-10 17:55 070 9 8.7 3.0
2019-Nov-10 17:50 070 8 8.7 3.0
2019-Nov-10 17:45 060 5 8.7 3.0
2019-Nov-10 17:40 070 8 8.7 3.0
2019-Nov-10 17:35 060 7 8.7 3.0
2019-Nov-10 17:30 070 7 8.7 3.0
2019-Nov-10 17:20 070 9 8.7 3.0
2019-Nov-10 17:10 090 8 8.7 3.0
2019-Nov-10 17:05 090 8 8.7 3.0
2019-Nov-10 17:00 090 10 8.7 3.0
2019-Nov-10 16:56 090 12 gusting 19 8.7 2.8
2019-Nov-10 16:55 090 13 8.7 3.0
2019-Nov-10 16:45 070 9 8.7 3.0
2019-Nov-10 16:35 070 7 8.7 3.0
2019-Nov-10 16:30 070 9 8.7 3.0
2019-Nov-10 16:25 070 9 8.7 3.0
2019-Nov-10 16:15 090 9 8.7 3.0
2019-Nov-10 16:10 080 9 8.7 3.0
2019-Nov-10 16:00 070 6 8.7 3.0
2019-Nov-10 15:56 070 7 8.7 2.8
2019-Nov-10 15:55 070 8 8.7 3.0
2019-Nov-10 15:45 070 7 8.7 3.0
2019-Nov-10 15:40 080 10 8.7 3.0
2019-Nov-10 15:35 080 9 8.7 3.0
2019-Nov-10 15:30 080 10 8.7 3.0
2019-Nov-10 15:25 080 9 8.7 3.0
2019-Nov-10 15:20 080 13 8.7 3.0
2019-Nov-10 15:15 090 9 8.7 3.0
2019-Nov-10 15:10 070 10 8.7 3.0
2019-Nov-10 14:56 080 9 8.7 2.8
2019-Nov-10 14:55 080 10 8.7 3.0
2019-Nov-10 14:50 080 9 8.7 3.0
2019-Nov-10 14:45 080 9 8.7 3.0
2019-Nov-10 14:35 080 10 8.7 3.0
2019-Nov-10 14:25 080 12 8.7 3.0
2019-Nov-10 14:20 080 8 8.7 3.0
2019-Nov-10 14:15 090 10 8.7 3.0
2019-Nov-10 14:10 080 12 8.7 3.0
2019-Nov-10 14:05 070 9 8.7 3.0
2019-Nov-10 13:55 070 8 8.7 3.0
2019-Nov-10 13:35 080 9 8.7 3.0
2019-Nov-10 13:30 080 12 8.7 3.0
2019-Nov-10 13:25 080 9 8.7 3.0
2019-Nov-10 13:20 080 9 gusting 14 8.7 3.0
2019-Nov-10 13:15 080 10 8.7 3.0
2019-Nov-10 13:10 070 10 8.7 3.0
2019-Nov-10 13:05 080 10 8.7 3.0
2019-Nov-10 13:00 070 8 8.7 3.0
2019-Nov-10 12:56 080 9 8.7 2.8
2019-Nov-10 12:55 080 10 8.7 3.0
2019-Nov-10 12:50 080 12 8.7 3.0
2019-Nov-10 12:40 060 7 8.7 3.0
2019-Nov-10 12:30 070 8 8.7 3.0
2019-Nov-10 12:25 070 9 8.7 3.0
2019-Nov-10 12:20 080 9 8.7 3.0
2019-Nov-10 12:05 080 8 8.7 3.0 Light rain.
2019-Nov-10 12:00 070 10 8.7 3.0 Light rain.
2019-Nov-10 11:55 080 10 8.7 3.0
2019-Nov-10 11:50 070 9 8.7 3.0
2019-Nov-10 11:45 070 10 8.7 3.0
2019-Nov-10 11:40 070 9 8.7 3.0
2019-Nov-10 11:35 060 8 8.7 3.0
2019-Nov-10 11:30 050 11 8.7 3.0
2019-Nov-10 11:25 070 13 gusting 18 8.7 3.0
2019-Nov-10 11:20 070 13 8.7 3.0
2019-Nov-10 11:15 070 11 8.7 3.0
2019-Nov-10 11:10 080 11 8.7 3.0
2019-Nov-10 11:05 070 14 8.7 3.0
2019-Nov-10 11:00 080 15 8.7 3.0
2019-Nov-10 10:56 090 13 8.7 3.3
2019-Nov-10 10:50 080 12 8.7 3.0
2019-Nov-10 10:45 060 11 8.7 3.0
2019-Nov-10 10:40 070 12 8.7 3.0
2019-Nov-10 10:35 070 14 gusting 20 8.7 3.0
2019-Nov-10 10:30 080 14 8.7 3.0
2019-Nov-10 10:25 080 12 8.7 3.0
2019-Nov-10 10:20 070 13 8.7 3.0
2019-Nov-10 10:15 070 15 8.7 3.0
2019-Nov-10 10:10 080 14 8.7 3.0
2019-Nov-10 10:05 070 14 gusting 20 8.7 3.0
2019-Nov-10 10:00 070 14 gusting 19 8.7 3.0
2019-Nov-10 09:55 080 13 8.7 3.0
2019-Nov-10 09:45 070 13 8.7 3.0
2019-Nov-10 09:40 080 12 gusting 17 8.7 3.0
2019-Nov-10 09:35 080 13 8.7 3.0
2019-Nov-10 09:30 070 13 8.7 3.0
2019-Nov-10 09:25 070 10 8.7 3.0
2019-Nov-10 09:15 070 13 gusting 18 8.7 3.0
2019-Nov-10 09:10 070 12 gusting 17 8.7 3.0
2019-Nov-10 09:05 080 14 8.7 3.0
2019-Nov-10 09:00 080 15 8.7 3.0
2019-Nov-10 08:56 080 13 gusting 20 8.7 2.8 Light rain.
2019-Nov-10 08:55 080 14 8.7 3.0 Light rain.
2019-Nov-10 08:45 080 12 8.7 3.0 Light rain.
2019-Nov-10 08:25 070 10 gusting 15 8.7 3.0 Light rain.
2019-Nov-10 08:15 070 15 gusting 20 8.7 3.0 Light rain.
2019-Nov-10 08:10 080 17 8.7 3.0 Light rain.
2019-Nov-10 08:05 080 14 8.7 3.0 Light rain.
2019-Nov-10 08:00 080 16 8.7 3.0 Light rain.
2019-Nov-10 07:56 080 12 gusting 20 6.1 2.8 Light rain.
2019-Nov-10 07:50 080 16 gusting 20 6.1 3.0 Light rain.
2019-Nov-10 07:45 080 14 gusting 19 6.1 3.0 Light rain.
2019-Nov-10 07:40 070 13 gusting 18 6.1 3.0 Light rain.
2019-Nov-10 07:35 080 15 gusting 20 6.1 3.0 Light rain.
2019-Nov-10 07:30 080 15 6.1 3.0 Light rain.
2019-Nov-10 07:20 070 15 gusting 20 6.1 3.0 Light rain.
2019-Nov-10 07:15 080 15 6.1 3.0 Light rain.
2019-Nov-10 07:05 080 18 6.1 3.0 Light rain.
2019-Nov-10 07:00 080 16 6.1 3.0 Light rain.
2019-Nov-10 06:56 080 18 gusting 22 6.1 2.8 Light rain snow.
2019-Nov-10 06:55 080 18 gusting 23 6.1 3.0 Light rain. Light snow.
2019-Nov-10 06:50 090 16 6.1 3.0 Light rain. Light snow.
2019-Nov-10 06:45 080 16 6.1 3.0 Light rain. Light snow.
2019-Nov-10 06:40 080 18 gusting 23 6.1 3.0 Light rain. Light snow.
2019-Nov-10 06:35 070 17 gusting 24 6.1 3.0 Light rain. Light snow.
2019-Nov-10 06:30 080 17 gusting 22 6.1 3.0 Light rain. Light snow.
2019-Nov-10 06:20 070 12 6.1 3.0 Light rain. Light snow.
2019-Nov-10 06:15 070 16 gusting 20 6.1 3.0 Light rain. Light snow.
2019-Nov-10 06:05 070 16 gusting 20 6.1 3.0 Light rain. Light snow.
2019-Nov-10 06:00 070 15 6.1 3.0 Light rain. Light snow.
2019-Nov-10 05:56 080 13 gusting 24 6.1 3.0 Light drizzle snow.
2019-Nov-10 05:55 080 15 6.1 3.0 Light rain. Light snow.
2019-Nov-10 05:50 070 15 6.1 3.0 Light rain. Light snow.
2019-Nov-10 05:45 080 16 gusting 22 6.1 3.0 Light rain. Light snow.
2019-Nov-10 05:35 070 14 gusting 20 6.1 3.0 Light rain. Light snow.
2019-Nov-10 05:30 070 15 6.1 2.0 Light rain. Light snow.
2019-Nov-10 05:25 080 17 6.1 3.0 Light rain. Light snow.
2019-Nov-10 05:15 080 16 6.1 3.0 Light rain. Light snow.
2019-Nov-10 05:10 080 19 gusting 24 6.1 3.0 Light rain. Light snow.
2019-Nov-10 05:05 070 18 6.1 3.0 Light rain. Light snow.
2019-Nov-10 05:00 070 17 gusting 24 6.1 3.0 Light rain. Light snow.